Simultaneous Nadir Overpasses (SNOs) Predictions

Prediction of SNOs between AQUA and METOP-A Satellite Orbit:

Table of predicted SNOs for the next 14.0 days since TLE Epoch: 8/7/2015
Index Date (AQUA) Time (AQUA) Lat,Lon (AQUA) SZA (AQUA ) Date (METOP-A) Time (METOP-A) Lat,Lon (METOP-A) SZA (METOP-A ) Distance(km) Time Diff (sec)
1 08/09/2015 18:42:32 -73.55, 74.27 122.21 08/09/2015 18:41:22 -73.53, 72.79 122.15 46.70 70
2 08/09/2015 19:32:07 73.94,-118.95 58.23 08/09/2015 19:31:53 73.95,-118.89 58.24 2.43 14
3 08/09/2015 20:21:34 -74.01, 48.54 121.69 08/09/2015 20:22:34 -74.01, 48.57 121.70 1.03 60
4 08/12/2015 14:16:52 -73.81, 140.13 121.10 08/12/2015 14:15:39 -73.77, 139.74 121.11 13.26 73
5 08/12/2015 15:06:22 73.95, -52.55 59.07 08/12/2015 15:06:15 73.94, -52.53 59.05 2.15 7
6 08/12/2015 15:55:49 -74.01, 114.96 120.86 08/12/2015 15:56:56 -73.99, 114.94 120.89 2.42 67
7 08/15/2015 09:51:07 -73.89,-153.60 120.16 08/15/2015 09:49:57 -73.90,-153.55 120.14 1.82 70
8 08/15/2015 10:40:35 73.94, 13.93 59.91 08/15/2015 10:40:35 73.96, 13.95 59.94 3.29 0
9 08/15/2015 11:30:03 -74.04,-178.66 119.97 08/15/2015 11:31:16 -74.02,-178.59 120.00 3.03 73
10 08/18/2015 05:25:21 -73.88, -87.15 119.28 08/18/2015 05:24:19 -73.87, -87.20 119.27 1.86 62
11 08/18/2015 06:14:49 73.94, 80.37 60.80 08/18/2015 06:14:57 73.94, 80.29 60.80 2.34 8
12 08/18/2015 07:04:22 -74.29,-112.81 118.81 08/18/2015 07:05:32 -74.30,-111.50 118.87 39.33 70
13 08/21/2015 00:59:35 -73.90, -20.75 118.35 08/21/2015 00:58:40 -73.90, -20.75 118.34 0.31 55
14 08/21/2015 01:49:03 73.96, 146.75 61.73 08/21/2015 01:49:18 73.96, 146.74 61.73 0.37 15




NCC Satellite Simultaneous Nadir Overpasses (SNOs) Prediction Service
